Weather History for KCYS - December, 2013

Change the Weather History Date:

Friday, December 20, 2013

  Actual Average Record
Temperature  
Mean Temperature 24 °F 27 °F  
Max Temperature 37 °F 38 °F 67 °F (1941)
Min Temperature 10 °F 17 °F -25 °F (1983)
Degree Days  
Heating Degree Days 41 38  
Month to date heating degree days 822 748  
Since 1 July heating degree days 2526 2496  
Cooling Degree Days 0 0  
Month to date cooling degree days 0 0  
Year to date cooling degree days 520 348  
Moisture  
Dew Point 12 °F    
Average Humidity 68    
Maximum Humidity 100    
Minimum Humidity 35    
Precipitation  
Precipitation T in 0.01 in 0.84 in (2006)
Month to date precipitation 0.37 0.33  
Year to date precipitation 18.05 15.78  
Snow  
Snow T in 0.30 in 12.50 in (2006)
Month to date snowfall 8.0 5.7  
Since 1 July snowfall 23.6 20.0  
Snow Depth 0.00 in    
Sea Level Pressure  
Sea Level Pressure 29.80 in    
Wind  
Wind Speed 9 mph (WSW)    
Max Wind Speed 24 mph    
Max Gust Speed 30 mph    
Visibility 6 miles    
Events Snow    
T = Trace of Precipitation, MM = Missing Value Source: NWS Daily Summary

Daily Weather History Graph

Daily Weather History Graph

Search for Another Location

Airport or City:

Trip Planner

Search our weather history database for the weather conditions in past years. The results will help you decide how hot, cold, wet, or windy it might be!

Date:

Astronomy

Dec. 20, 2013 Rise Set
Actual Time 7:20 AM MST 4:33 PM MST
Civil Twilight 6:49 AM MST 5:04 PM MST
Nautical Twilight 6:14 AM MST 5:39 PM MST
Astronomical Twilight 5:41 AM MST 6:12 PM MST
Moon 7:57 PM MST (12/20) 9:14 AM MST (12/20)
Length of Visible Light 10h 15m
Length of Day
9h 12m
Waning Gibbous, 90% of the Moon is Illuminated
Dec 20
Waning Gibbous
Dec 25
Last Quarter
Jan 1
New
Jan 7
First Quarter
Jan 15
Full

Hourly Weather History & Observations

Time (MST) Temp. Windchill Dew Point Humidity Pressure Visibility Wind Dir Wind Speed Gust Speed Precip Events Conditions
12:31 AM 10.4 °F 4.0 °F 6.8 °F 85% 29.78 in 10.0 mi North 3.5 mph - N/A   Overcast
12:53 AM 10.9 °F 4.7 °F 7.0 °F 84% 29.88 in 10.0 mi North 3.5 mph - N/A   Overcast
1:53 AM 12.0 °F - 8.1 °F 84% 29.91 in 10.0 mi Calm Calm - N/A   Overcast
2:46 AM 14.0 °F 3.9 °F 12.2 °F 93% 29.76 in 1.8 mi SSW 6.9 mph - 0.00 in Snow Light Snow
2:53 AM 15.1 °F 3.3 °F 12.9 °F 91% 29.91 in 1.5 mi South 9.2 mph - 0.00 in Snow Light Snow
3:24 AM 14.0 °F 1.2 °F 12.2 °F 93% 29.74 in 2.5 mi SW 10.4 mph - 0.00 in   Overcast
3:53 AM 14.0 °F 1.2 °F 12.0 °F 92% 29.94 in 2.0 mi SW 10.4 mph - 0.00 in   Overcast
4:16 AM 14.0 °F 1.2 °F 12.2 °F 93% 29.73 in 1.8 mi SSW 10.4 mph - 0.00 in Snow Light Snow
4:26 AM 12.2 °F -1.0 °F 12.2 °F 100% 29.73 in 2.0 mi SSW 10.4 mph - 0.00 in   Overcast
4:35 AM 12.2 °F -1.8 °F 12.2 °F 100% 29.73 in 1.8 mi SSW 11.5 mph - 0.00 in   Overcast
4:53 AM 12.9 °F -1.6 °F 12.0 °F 96% 29.97 in 1.2 mi SSW 12.7 mph - 0.00 in   Overcast
5:29 AM 12.2 °F -1.0 °F 12.2 °F 100% 29.72 in 0.8 mi SW 10.4 mph - N/A   Overcast
5:53 AM 12.9 °F -0.2 °F 12.0 °F 96% 29.96 in 0.8 mi SW 10.4 mph - N/A   Overcast
6:45 AM 14.0 °F 1.2 °F 12.2 °F 93% 29.71 in 1.2 mi WSW 10.4 mph - 0.00 in   Overcast
6:53 AM 14.0 °F 2.0 °F 12.0 °F 92% 29.95 in 0.8 mi SSW 9.2 mph - 0.00 in   Overcast
7:23 AM 12.2 °F 2.9 °F 10.4 °F 92% 29.71 in 1.2 mi SW 5.8 mph - 0.00 in   Overcast
7:53 AM 12.9 °F 3.8 °F 10.9 °F 92% 29.96 in 2.5 mi SW 5.8 mph - 0.00 in   Overcast
8:21 AM 14.0 °F 3.9 °F 12.2 °F 93% 29.70 in 5.0 mi WSW 6.9 mph - N/A   Overcast
8:53 AM 15.1 °F 5.2 °F 12.0 °F 88% 29.94 in 8.0 mi South 6.9 mph - N/A   Scattered Clouds
9:53 AM 18.0 °F 8.7 °F 15.1 °F 88% 29.93 in 9.0 mi SW 6.9 mph - N/A   Clear
10:53 AM 23.0 °F - 16.0 °F 74% 29.86 in 10.0 mi Calm Calm - N/A   Clear
11:53 AM 30.0 °F - 16.0 °F 56% 29.81 in 10.0 mi Calm Calm - N/A   Overcast
12:53 PM 28.9 °F 25.2 °F 16.0 °F 58% 29.78 in 10.0 mi NW 3.5 mph - N/A   Overcast
1:53 PM 37.0 °F 27.4 °F 12.9 °F 37% 29.72 in 10.0 mi West 17.3 mph 23.0 mph N/A   Mostly Cloudy
2:53 PM 33.1 °F 21.9 °F 16.0 °F 50% 29.73 in 10.0 mi NNW 18.4 mph 27.6 mph N/A   Partly Cloudy
3:01 PM 33.8 °F 24.8 °F 15.8 °F 48% 29.62 in 10.0 mi NNW 12.7 mph 25.3 mph N/A   Partly Cloudy
3:53 PM 30.9 °F 20.7 °F 12.0 °F 46% 29.75 in 10.0 mi NW 13.8 mph 20.7 mph N/A   Clear
4:53 PM 28.0 °F 20.0 °F 10.9 °F 49% 29.75 in 10.0 mi NW 8.1 mph - N/A   Clear
5:53 PM 24.1 °F 14.4 °F 10.9 °F 57% 29.78 in 10.0 mi NW 9.2 mph - N/A   Clear
6:53 PM 23.0 °F 17.0 °F 10.0 °F 58% 29.78 in 10.0 mi Variable 4.6 mph - N/A   Clear
7:53 PM 25.0 °F 12.2 °F 10.9 °F 55% 29.78 in 10.0 mi WNW 16.1 mph - N/A   Clear
8:53 PM 26.1 °F 12.0 °F 10.9 °F 53% 29.75 in 10.0 mi West 20.7 mph - N/A   Clear
9:53 PM 21.0 °F 9.9 °F 15.1 °F 78% 29.77 in 10.0 mi South 10.4 mph - N/A   Clear
10:53 PM 19.9 °F 7.3 °F 15.1 °F 81% 29.74 in 10.0 mi SSW 12.7 mph - N/A   Clear
11:53 PM 19.9 °F 7.3 °F 15.1 °F 81% 29.67 in 10.0 mi SW 12.7 mph - N/A   Clear